Weather History for KVPZ - August, 2013

Change the Weather History Date:

Monday, August 26, 2013

  Actual Average Record
Temperature  
Mean Temperature 76 °F 70 °F  
Max Temperature 88 °F 80 °F 89 °F (2003)
Min Temperature 64 °F 60 °F 49 °F (2008)
Degree Days  
Heating Degree Days 0 1  
Month to date heating degree days 12 2  
Since 1 June heating degree days 65 47  
Since 1 July heating degree days 28 6  
Cooling Degree Days 11 5  
Month to date cooling degree days 130 162  
Year to date cooling degree days 605 613  
Since 1 June cooling degree days 504 566  
Growing Degree Days 26 (Base 50)    
Moisture  
Dew Point 66 °F    
Average Humidity 72    
Maximum Humidity 87    
Minimum Humidity 55    
Precipitation  
Precipitation 0.00 in 0.15 in 1.77 in (2014)
Month to date precipitation 3.70 3.64  
Year to date precipitation 25.33 24.87  
Sea Level Pressure  
Sea Level Pressure 30.11 in    
Wind  
Wind Speed 6 mph (SW)    
Max Wind Speed 16 mph    
Max Gust Speed 21 mph    
Visibility 10 miles    
Events      
T = Trace of Precipitation, MM = Missing Value Source: NWS Daily Summary

Daily Weather History Graph

Daily Weather History Graph

Search for Another Location

Airport or City:

Trip Planner

Search our weather history database for the weather conditions in past years. The results will help you decide how hot, cold, wet, or windy it might be!

Date:

Astronomy

Aug. 26, 2013 Rise Set
Actual Time 6:08 AM CDT 7:30 PM CDT
Civil Twilight 5:39 AM CDT 7:59 PM CDT
Nautical Twilight 5:04 AM CDT 8:33 PM CDT
Astronomical Twilight 4:28 AM CDT 9:10 PM CDT
Moon 10:35 PM CDT (8/26) 12:14 PM CDT (8/26)
Length of Visible Light 14h 19m
Length of Day
13h 21m
Waning Gibbous, 66% of the Moon is Illuminated
Aug 26
Waning Gibbous
Aug 28
Last Quarter
Sep 5
New
Sep 12
First Quarter
Sep 19
Full

Hourly Weather History & Observations

Time (CDT) Temp. Heat Index Dew Point Humidity Pressure Visibility Wind Dir Wind Speed Gust Speed Precip Events Conditions
12:53 AM 69.1 °F - 61.0 °F 75% 30.18 in 10.0 mi SW 4.6 mph - N/A   Clear
1:53 AM 68.0 °F - 61.0 °F 78% 30.17 in 10.0 mi SW 8.1 mph - N/A   Clear
2:53 AM 68.0 °F - 60.1 °F 76% 30.16 in 10.0 mi SW 6.9 mph - N/A   Clear
3:53 AM 66.9 °F - 60.1 °F 79% 30.17 in 10.0 mi SSW 3.5 mph - N/A   Clear
4:53 AM 64.9 °F - 60.1 °F 84% 30.16 in 10.0 mi SSW 3.5 mph - N/A   Clear
5:53 AM 64.0 °F - 59.0 °F 84% 30.17 in 10.0 mi SW 3.5 mph - N/A   Clear
6:53 AM 64.0 °F - 60.1 °F 87% 30.17 in 10.0 mi SSW 3.5 mph - N/A   Clear
7:53 AM 70.0 °F - 62.1 °F 76% 30.18 in 10.0 mi SW 5.8 mph - N/A   Clear
8:53 AM 75.0 °F - 66.0 °F 73% 30.17 in 10.0 mi SW 8.1 mph - N/A   Clear
9:53 AM 79.0 °F - 68.0 °F 69% 30.17 in 10.0 mi WSW 8.1 mph - N/A   Clear
10:53 AM 82.9 °F 85.8 °F 68.0 °F 60% 30.17 in 10.0 mi WSW 9.2 mph - N/A   Clear
11:53 AM 84.0 °F 87.0 °F 68.0 °F 58% 30.16 in 10.0 mi WSW 9.2 mph - N/A   Clear
12:53 PM 87.1 °F 91.3 °F 69.1 °F 55% 30.13 in 10.0 mi WSW 6.9 mph - N/A   Clear
1:53 PM 87.1 °F 92.0 °F 70.0 °F 57% 30.11 in 10.0 mi SSW 8.1 mph - N/A   Clear
2:53 PM 87.1 °F 93.6 °F 72.0 °F 61% 30.07 in 10.0 mi SSW 10.4 mph - N/A   Clear
3:53 PM 86.0 °F 91.5 °F 71.1 °F 61% 30.04 in 10.0 mi SSW 10.4 mph - N/A   Clear
4:53 PM 88.0 °F 92.9 °F 70.0 °F 55% 30.04 in 10.0 mi SW 12.7 mph - N/A   Clear
5:53 PM 84.9 °F 88.8 °F 69.1 °F 59% 30.05 in 10.0 mi WSW 11.5 mph - N/A   Clear
6:53 PM 82.9 °F 87.0 °F 70.0 °F 65% 30.05 in 10.0 mi SSW 4.6 mph - N/A   Clear
7:53 PM 77.0 °F - 70.0 °F 79% 30.05 in 10.0 mi Calm Calm - N/A   Clear
8:53 PM 75.0 °F - 70.0 °F 84% 30.04 in 9.0 mi Calm Calm - N/A   Clear
9:53 PM 73.9 °F - 70.0 °F 87% 30.05 in 8.0 mi Calm Calm - N/A   Clear
10:53 PM 73.9 °F - 69.1 °F 85% 30.05 in 9.0 mi SW 5.8 mph - N/A   Clear
11:53 PM 73.0 °F - 68.0 °F 84% 30.04 in 9.0 mi SW 4.6 mph - N/A   Clear